EW6379 Weather Reports


time (UTC)temp
F
wind
direction
speed
knots
gust
knots
rain 1hr
in
rain 24hr
in
rain mn
in
humidity
%
barometer
mb
20260504201525 79 0.0 15.6 0.00 0.00 0.00 25 1005.1
20260504200024 79 12.2 14.8 0.00 0.00 0.00 25 1005.0
20260504194524 78 12.2 17.4 0.00 0.00 0.00 24 1005.2
20260504193021 78 12.2 15.6 0.00 0.00 0.00 25 1005.4
20260504191519 78 13.0 19.1 0.00 0.00 0.00 24 1005.6
20260504190018 78 4.3 9.6 0.00 0.00 0.00 26 1006.0
20260504184517 76 3.5 10.4 0.00 0.00 0.00 28 1006.1
20260504183010 76 4.3 9.6 0.00 0.00 0.00 28 1006.2
20260504181507 75 3.5 8.7 0.00 0.00 0.00 29 1006.4
20260504180006 74 1.7 6.1 0.00 0.00 0.00 27 1006.5
20260504174504 73 1.7 6.1 0.00 0.00 0.00 31 1006.7
20260504173101 72 4.3 7.0 0.00 0.00 0.00 32 1006.7
20260504171558 71 4.3 6.1 0.00 0.00 0.00 33 1006.8
20260504081554 63 0.0 0.9 0.00 0.00 0.00 41 1006.3
20260504044537 69 1.7 3.5 0.00 0.00 0.00 34 1005.9
20260504043042 68 3.5 5.2 0.00 0.00 0.00 36 1005.7
20260504041535 70 3.5 4.3 0.00 0.00 0.00 34 1005.7
20260504040036 75 3.5 5.2 0.00 0.00 0.00 28 1005.7
20260504034536 77 2.6 5.2 0.00 0.00 0.00 25 1005.5
20260504033034 77 2.6 6.1 0.00 0.00 0.00 25 1005.5
20260504031534 76 3.5 6.1 0.00 0.00 0.00 27 1005.2
20260504030033 78 1.7 3.5 0.00 0.00 0.00 25 1005.2
20260504024534 79 0.0 0.0 0.00 0.00 0.00 23 1005.2
20260504023034 81 0.0 0.0 0.00 0.00 0.00 22 1005.2
20260504021530 87 0.0 0.0 0.00 0.00 0.00 19 1005.2
20260504020041 86 0.0 0.0 0.00 0.00 0.00 20 1005.3
20260504014538 82 0.0 0.0 0.00 0.00 0.00 21 1005.4
20260504013035 85 0.0 0.0 0.00 0.00 0.00 20 1005.5
20260504011523 86 0.0 0.9 0.00 0.00 0.00 19 1005.7
20260504010020 87 0.0 0.0 0.00 0.00 0.00 18 1005.8
20260504004517 85 0.0 2.6 0.00 0.00 0.00 20 1006.0
20260504003011 84 0.0 4.3 0.00 0.00 0.00 20 1006.2
20260504001508 83 0.0 0.9 0.00 0.00 0.00 22 1006.3
20260504000005 81 3.5 7.0 0.00 0.00 0.00 21 1006.5
20260503234503 84 0.0 4.3 0.00 0.00 0.00 20 1006.6
20260503233107 85 0.0 2.6 0.00 0.00 0.00 22 1006.7
20260503231557 84 0.0 3.5 0.00 0.00 0.00 20 1007.1
20260503230112 85 0.0 3.5 0.00 0.00 0.00 21 1007.4
20260503224553 84 0.0 3.5 0.00 0.00 0.00 20 1007.6
20260503223048 84 0.0 4.3 0.00 0.00 0.00 21 1007.8
20260503221543 83 0.9 6.1 0.00 0.00 0.00 21 1008.1
20260503220046 83 4.3 9.6 0.00 0.00 0.00 21 1008.4
20260503214540 82 0.9 6.1 0.00 0.00 0.00 22 1008.6
20260503213036 80 5.2 9.6 0.00 0.00 0.00 20 1008.7
20260503211534 80 5.2 9.6 0.00 0.00 0.00 21 1008.8
20260503210029 80 1.7 5.2 0.00 0.00 0.00 21 1009.1
20260503204526 80 5.2 7.0 0.00 0.00 0.00 21 1009.4
20260503203042 79 1.7 8.7 0.00 0.00 0.00 22 1009.8